TimeEDT,TemperatureF,Dew PointF,Humidity,Sea Level PressureIn,VisibilityMPH,Wind Direction,Wind SpeedMPH,Gust SpeedMPH,PrecipitationIn,Events,Conditions,WindDirDegrees,DateUTC
12:53 AM,50.0,46.9,89,30.08,9.0,Calm,Calm,-,N/A,,Clear,0,2012-10-25 04:53:00
1:53 AM,50.0,46.9,89,30.09,10.0,Calm,Calm,-,N/A,,Clear,0,2012-10-25 05:53:00
2:53 AM,48.9,46.0,90,30.08,10.0,Calm,Calm,-,N/A,,Clear,0,2012-10-25 06:53:00
3:53 AM,48.0,46.0,93,30.06,9.0,Calm,Calm,-,N/A,,Clear,0,2012-10-25 07:53:00
4:53 AM,46.9,45.0,93,30.06,10.0,Calm,Calm,-,N/A,,Clear,0,2012-10-25 08:53:00
5:53 AM,48.0,45.0,89,30.07,10.0,Calm,Calm,-,N/A,,Clear,0,2012-10-25 09:53:00
6:53 AM,46.0,44.1,93,30.08,10.0,Calm,Calm,-,N/A,,Clear,0,2012-10-25 10:53:00
7:53 AM,46.0,43.0,89,30.10,10.0,Calm,Calm,-,N/A,,Clear,0,2012-10-25 11:53:00
8:53 AM,50.0,46.0,86,30.11,10.0,Calm,Calm,-,N/A,,Clear,0,2012-10-25 12:53:00
9:53 AM,57.0,50.0,77,30.12,6.0,Calm,Calm,-,N/A,,Haze,0,2012-10-25 13:53:00
10:53 AM,66.0,52.0,60,30.12,10.0,Calm,Calm,-,N/A,,Clear,0,2012-10-25 14:53:00
11:53 AM,71.1,51.1,49,30.12,10.0,South,5.8,-,N/A,,Clear,170,2012-10-25 15:53:00
12:53 PM,73.9,51.1,45,30.10,10.0,South,8.1,-,N/A,,Clear,180,2012-10-25 16:53:00
1:53 PM,75.0,48.9,40,30.07,10.0,SSW,9.2,-,N/A,,Clear,200,2012-10-25 17:53:00
2:53 PM,77.0,48.9,37,30.04,10.0,Variable,6.9,-,N/A,,Clear,0,2012-10-25 18:53:00
4:53 PM,77.0,46.9,34,30.01,10.0,South,3.5,-,N/A,,Clear,190,2012-10-25 20:53:00
5:53 PM,75.9,48.0,37,30.01,10.0,SSE,4.6,-,N/A,,Clear,160,2012-10-25 21:53:00
6:53 PM,72.0,48.0,43,30.02,10.0,Calm,Calm,-,N/A,,Clear,0,2012-10-25 22:53:00
7:53 PM,69.1,46.9,45,30.04,10.0,South,3.5,-,N/A,,Clear,180,2012-10-25 23:53:00
9:53 PM,64.9,48.9,56,30.04,10.0,Calm,Calm,-,N/A,,Clear,0,2012-10-26 01:53:00
10:53 PM,63.0,50.0,63,30.04,10.0,SW,3.5,-,N/A,,Clear,220,2012-10-26 02:53:00